Weather History for KOZR - February, 2014

Change the Weather History Date:

Saturday, February 15, 2014

  Actual Average Record
Temperature  
Mean Temperature 46 °F -  
Max Temperature 55 °F 62 °F 78 °F (2000)
Min Temperature 35 °F 41 °F 28 °F (1999)
Degree Days  
Heating Degree Days 20    
Moisture  
Dew Point 35 °F    
Average Humidity 67    
Maximum Humidity 94    
Minimum Humidity 32    
Precipitation  
Precipitation 0.01 in - - ()
Sea Level Pressure  
Sea Level Pressure 30.05 in    
Wind  
Wind Speed 10 mph (NW)    
Max Wind Speed 14 mph    
Max Gust Speed 31 mph    
Visibility 10 miles    
Events      
Averages and records for this station are not official NWS values.
T = Trace of Precipitation, MM = Missing Value Source: NWS Daily Summary

Daily Weather History Graph

Daily Weather History Graph

Search for Another Location

Airport or City:

Trip Planner

Search our weather history database for the weather conditions in past years. The results will help you decide how hot, cold, wet, or windy it might be!

Date:

Astronomy

Feb. 15, 2014 Rise Set
Actual Time 6:24 AM CST 5:30 PM CST
Civil Twilight 5:59 AM CST 5:54 PM CST
Nautical Twilight 5:30 AM CST 6:23 PM CST
Astronomical Twilight 5:02 AM CST 6:51 PM CST
Moon 6:22 PM CST (2/15) 6:28 AM CST (2/15)
Length of Visible Light 11h 55m
Length of Day
11h 06m
Waxing Gibbous, 99% of the Moon is Illuminated
Feb 15
Waxing Gibbous
Feb 22
Last Quarter
Mar 1
New
Mar 8
First Quarter
Mar 16
Full

Hourly Weather History & Observations

Time (CST) Temp. Windchill Dew Point Humidity Pressure Visibility Wind Dir Wind Speed Gust Speed Precip Events Conditions
12:10 AM 50.0 °F - 48.2 °F 94% 29.83 in 10.0 mi WNW 13.8 mph 19.6 mph N/A   Overcast
12:30 AM 50.0 °F - 48.2 °F 94% 29.84 in 10.0 mi WNW 10.4 mph - N/A   Overcast
12:45 AM 50.0 °F - 46.4 °F 87% 29.85 in 10.0 mi WNW 12.7 mph 19.6 mph N/A   Overcast
12:58 AM 50.0 °F - 46.9 °F 89% 29.85 in 10.0 mi WNW 11.5 mph - 0.01 in   Overcast
1:58 AM 48.6 °F - 37.4 °F 65% 29.88 in 10.0 mi NW 13.8 mph 31.1 mph N/A   Overcast
2:58 AM 45.7 °F 41.0 °F 37.2 °F 72% 29.91 in 10.0 mi WNW 9.2 mph - N/A   Clear
3:58 AM 44.1 °F 37.7 °F 37.0 °F 76% 29.93 in 10.0 mi WNW 12.7 mph 19.6 mph N/A   Clear
4:58 AM 42.8 °F 36.2 °F 36.5 °F 78% 29.97 in 10.0 mi NW 12.7 mph - N/A   Clear
5:58 AM 41.2 °F 35.5 °F 36.3 °F 83% 30.01 in 10.0 mi WNW 9.2 mph - N/A   Clear
6:58 AM 40.5 °F 33.2 °F 35.6 °F 83% 30.03 in 10.0 mi NNW 12.7 mph 18.4 mph N/A   Partly Cloudy
7:58 AM 41.4 °F 35.2 °F 32.7 °F 71% 30.07 in 10.0 mi North 10.4 mph - N/A   Clear
8:58 AM 43.3 °F 37.2 °F 32.9 °F 67% 30.11 in 10.0 mi North 11.5 mph - N/A   Clear
9:58 AM 46.0 °F 41.0 °F 32.9 °F 60% 30.12 in 10.0 mi NW 10.4 mph - N/A   Clear
10:58 AM 48.2 °F - 31.8 °F 53% 30.15 in 10.0 mi NW 9.2 mph - N/A   Clear
11:58 AM 50.9 °F - 30.9 °F 46% 30.14 in 10.0 mi NNW 11.5 mph - N/A   Clear
12:58 PM 52.9 °F - 28.6 °F 39% 30.13 in 10.0 mi NW 10.4 mph - N/A   Clear
1:58 PM 53.8 °F - 28.4 °F 38% 30.12 in 10.0 mi NW 8.1 mph - N/A   Clear
2:58 PM 54.3 °F - 28.8 °F 38% 30.12 in 10.0 mi North 10.4 mph - N/A   Clear
3:58 PM 55.6 °F - 25.9 °F 32% 30.13 in 10.0 mi NW 4.6 mph - N/A   Clear
4:58 PM 54.0 °F - 28.4 °F 37% 30.14 in 10.0 mi WNW 4.6 mph - N/A   Clear
5:58 PM 50.2 °F - 29.5 °F 45% 30.16 in 10.0 mi NNW 5.8 mph - N/A   Clear
6:58 PM 46.8 °F - 32.2 °F 57% 30.18 in 10.0 mi NW 4.6 mph - N/A   Clear
7:58 PM 41.4 °F - 32.7 °F 71% 30.15 in 10.0 mi ENE 2.3 mph - N/A   Clear
8:58 PM 42.1 °F - 31.5 °F 66% 30.17 in 10.0 mi Calm Calm - N/A   Clear
9:58 PM 36.1 °F - 31.8 °F 84% 30.17 in 10.0 mi WSW 2.3 mph - N/A   Clear
10:58 PM 36.9 °F - 33.8 °F 89% 30.15 in 10.0 mi Calm Calm - N/A   Clear
11:58 PM 35.2 °F - 31.6 °F 87% 30.14 in 10.0 mi Calm Calm - N/A   Clear